AQUA

Last updated on Sun Jun 21 2026 00:02:15 GMT+0000 (Coordinated Universal Time)

1 27424U 02022A 26171.42470413 .00000562 00000+0 12157-3 0 9998 2 27424 98.4278 140.7722 0000982 55.9702 96.4678 14.62162126283744
UTC large
Height (km)
Speed (km/s)
/
Latitude / Longitude
Inclination (degrees)
Orbital Period (minutes)
Azimuth
Elevation
Range (km)
Doppler Factor

Next 0 passes for location: London (51.5072 / 0.1276)

No passes found over London.
AQUA